User: anonymous   Login
Location: Unspecified
(0.0000°N, 0.0000°E)
Time: 19:03:06
(UTC+00:00)
Language:

WGS 8 (USA 272) - Orbit

View from above orbital plane
View from above orbital plane
View from above satellite
View from above satellite

Ground track
Ground track

The orbit data is extracted from the following two-line orbital elements,

1 41879U 16075A   20047.48052640 -.00000218 +00000-0 +00000-0 0  9992
2 41879 000.0164 107.6721 0000188 261.8554 099.1804 01.00271252011658
Epoch (UTC): 16 February 2020 11:31:57
Eccentricity: 0.0000188
inclination: 0.0164°
perigee height: 35785 km
apogee height: 35787 km
right ascension of ascending node: 107.6721°
argument of perigee: 261.8554°
revolutions per day: 1.00271252
mean anomaly at epoch: 99.1804°
orbit number at epoch: 1165

The dashed part of the orbit path shows where the satellite is in the earth's shadow,  

DLR